Weather History for KCWA - October, 2012

Change the Weather History Date:

Thursday, October 18, 2012

  Actual Average (KAUW) Record (KAUW)
Temperature  
Mean Temperature 46 °F 45 °F  
Max Temperature 50 °F 55 °F 83 °F (1950)
Min Temperature 41 °F 36 °F 15 °F (1948)
Degree Days  
Heating Degree Days 20 20  
Month to date heating degree days 300  
Since 1 July heating degree days 593  
Cooling Degree Days 0 0  
Month to date cooling degree days 0  
Year to date cooling degree days 405  
Moisture  
Dew Point 45 °F    
Average Humidity 98    
Maximum Humidity 100    
Minimum Humidity 81    
Precipitation  
Precipitation 0.17 in 0.10 in 1.25 in (1906)
Month to date precipitation 1.89  
Year to date precipitation 28.00  
Snow  
Snow 0.00 in 0.10 in 1.80 in (1925)
Month to date snowfall 0.6  
Since 1 July snowfall 0.6  
Snow Depth -    
Sea Level Pressure  
Sea Level Pressure 29.25 in    
Wind  
Wind Speed 5 mph (SSW)    
Max Wind Speed 13 mph    
Max Gust Speed -    
Visibility 9 miles    
Events Rain    
T = Trace of Precipitation, MM = Missing Value Source: NWS Daily Summary

Daily Weather History Graph

Daily Weather History Graph

Search for Another Location

Airport or City:

Trip Planner

Search our weather history database for the weather conditions in past years. The results will help you decide how hot, cold, wet, or windy it might be!

Date:

Astronomy

Oct. 18, 2012 Rise Set
Actual Time 7:18 AM CDT 6:08 PM CDT
Civil Twilight 6:49 AM CDT 6:37 PM CDT
Nautical Twilight 6:15 AM CDT 7:11 PM CDT
Astronomical Twilight 5:41 AM CDT 7:45 PM CDT
Moon 11:09 AM CDT (10/18) 8:33 PM CDT (10/18)
Length of Visible Light 11h 48m
Length of Day
10h 49m
Waxing Crescent, 14% of the Moon is Illuminated
Oct 18
Waxing Crescent
Oct 21
First Quarter
Oct 29
Full
Nov 6
Last Quarter
Nov 13
New

Hourly Weather History & Observations

Time (CDT) Temp. Windchill Dew Point Humidity Pressure Visibility Wind Dir Wind Speed Gust Speed Precip Events Conditions
12:15 AM 50.0 °F - 50.0 °F 100% 29.22 in 7.0 mi Calm Calm - 0.02 in Rain Light Rain
12:35 AM 50.0 °F - 50.0 °F 100% 29.22 in 7.0 mi Calm Calm - 0.03 in Rain Light Rain
12:55 AM 50.0 °F - 50.0 °F 100% 29.22 in 7.0 mi Calm Calm - 0.04 in   Drizzle
1:15 AM 50.0 °F - 50.0 °F 100% 29.21 in 4.0 mi SW 3.5 mph - 0.03 in Rain Rain
1:35 AM 48.2 °F - 48.2 °F 100% 29.19 in 10.0 mi West 9.2 mph - 0.05 in Rain Light Rain
1:55 AM 46.4 °F 41.1 °F 46.4 °F 100% 29.18 in 10.0 mi West 11.5 mph - 0.05 in   Drizzle
2:15 AM 46.4 °F 41.9 °F 46.4 °F 100% 29.18 in 10.0 mi WNW 9.2 mph - N/A   Drizzle
2:35 AM 46.4 °F 42.9 °F 46.4 °F 100% 29.20 in 10.0 mi West 6.9 mph - N/A   Drizzle
2:55 AM 46.4 °F 41.9 °F 46.4 °F 100% 29.20 in 5.0 mi WSW 9.2 mph - 0.03 in Rain Light Rain
3:15 AM 44.6 °F 38.4 °F 44.6 °F 100% 29.20 in 7.0 mi WSW 12.7 mph - 0.01 in Rain Rain
3:35 AM 44.6 °F 39.2 °F 44.6 °F 100% 29.21 in 10.0 mi WSW 10.4 mph - 0.03 in Rain Light Rain
3:55 AM 44.6 °F 39.7 °F 44.6 °F 100% 29.20 in 5.0 mi WSW 9.2 mph - 0.04 in Rain Rain
4:15 AM 44.6 °F 40.2 °F 44.6 °F 100% 29.20 in 10.0 mi SW 8.1 mph - 0.01 in Rain Light Rain
4:35 AM 44.6 °F 40.2 °F 44.6 °F 100% 29.18 in 10.0 mi WSW 8.1 mph - 0.01 in Rain Light Rain
4:55 AM 44.6 °F 40.7 °F 44.6 °F 100% 29.18 in 10.0 mi WSW 6.9 mph - 0.01 in Rain Light Rain
5:15 AM 44.6 °F 40.7 °F 44.6 °F 100% 29.19 in 10.0 mi SW 6.9 mph - N/A   Overcast
5:35 AM 44.6 °F 40.7 °F 44.6 °F 100% 29.19 in 10.0 mi SW 6.9 mph - N/A   Overcast
5:45 AM 44.6 °F 40.2 °F 44.6 °F 100% 29.19 in 10.0 mi SW 8.1 mph - N/A   Overcast
6:45 AM 44.6 °F 39.7 °F 44.6 °F 100% 29.19 in 10.0 mi SW 9.2 mph - N/A   Overcast
7:45 AM 44.6 °F 40.7 °F 44.6 °F 100% 29.21 in 1.5 mi SW 6.9 mph - N/A   Overcast
8:55 AM 44.6 °F 41.4 °F 44.6 °F 100% 29.21 in 10.0 mi SSW 5.8 mph - N/A   Overcast
9:50 AM 44.6 °F 40.7 °F 44.6 °F 100% 29.22 in 10.0 mi SSW 6.9 mph - N/A   Overcast
10:50 AM 46.4 °F 42.9 °F 44.6 °F 93% 29.23 in 10.0 mi SW 6.9 mph - N/A   Overcast
11:50 AM 46.4 °F 41.9 °F 42.8 °F 87% 29.24 in 10.0 mi South 9.2 mph - N/A   Overcast
12:50 PM 46.4 °F 41.9 °F 42.8 °F 87% 29.25 in 10.0 mi South 9.2 mph - N/A   Overcast
1:45 PM 46.4 °F 41.5 °F 41.0 °F 81% 29.26 in 10.0 mi South 10.4 mph - N/A   Overcast
2:45 PM 46.4 °F 42.9 °F 42.8 °F 87% 29.27 in 10.0 mi South 6.9 mph - N/A   Overcast
3:50 PM 44.6 °F 39.2 °F 42.8 °F 93% 29.30 in 10.0 mi SSW 10.4 mph - N/A   Drizzle
4:45 PM 44.6 °F 41.4 °F 42.8 °F 93% 29.32 in 10.0 mi SSW 5.8 mph - N/A   Light Drizzle
6:45 PM 42.8 °F 41.1 °F 42.8 °F 100% 29.36 in 7.0 mi South 3.5 mph - N/A Rain Light Rain
6:55 PM 42.8 °F 41.1 °F 42.8 °F 100% 29.35 in 10.0 mi SSE 3.5 mph - N/A Rain Rain
7:45 PM 42.8 °F 41.1 °F 42.8 °F 100% 29.38 in 10.0 mi SE 3.5 mph - N/A   Light Drizzle
8:45 PM 42.8 °F 41.1 °F 42.8 °F 100% 29.39 in 10.0 mi SSE 3.5 mph - N/A   Light Drizzle
9:45 PM 42.8 °F 41.1 °F 42.8 °F 100% 29.40 in 10.0 mi ESE 3.5 mph - N/A   Overcast
10:35 PM 41.0 °F 38.0 °F 41.0 °F 100% 29.41 in 10.0 mi ESE 4.6 mph - N/A   Overcast
10:55 PM 41.0 °F 38.0 °F 41.0 °F 100% 29.41 in 10.0 mi ESE 4.6 mph - N/A   Light Drizzle